Kodiak Airport Kodiak US
ICAO: PADQ
IATA:
Category: Medium
Scheduled Services:

Elevation: 78 ft
TransAlt. 18000 ft.

Airport Communications:
ANCHORAGE CNTR:125.1
ATIS:135.5
CTAF:119.8
KENAI RDO:119.8
GND:121.9
TWEB:117.1
OPS:156.8
KENAI RDO:122.2
TWR:119.8
UNICOM:122.8

PADQ Zoom In..

Runways:

(A) RW 07 length 7550 ft width 150 ft
---- / hdg 74

(B) RW 11 length 5400 ft width 150 ft
---- / hdg 109

(C) RW 18 length 5010 ft width 150 ft
---- / hdg 184

(D) RW 25 length 7550 ft width 150 ft
ILS 110.90 / hdg 254

(E) RW 29 length 5400 ft width 150 ft
---- / hdg 289

(F) RW 36 length 5010 ft width 150 ft
---- / hdg 4

Location; PADQ
Day. 21 / Time. 05.53 Zulu
* Altimeter: 30.34
* Temperature: 17° c. 62.6°f.
* Wind from: 160° Speed 10 kn.
Dewpoint: 12° c.
Visibility: 10 Statute Miles.
Clouds: Overcast 9500 ft.

PADQ 210553Z 16010KT 10SM OVC095 17/12 A3034 RMK AO2 SLP276 T01670122 10200 20167 53001


Wind From 160°
Speed 10 kn.

 
 
jpsmedia.com for Web Design worldairports.se 2018   terms of use